Tracking 22439 objects as of 27-Feb-2021
HD Live streaming from Space Station
objects crossing your sky now

SL-8 R/B

Track SL-8 R/B now!
10-day predictions


NORAD ID: 35637
Int'l Code: 2009-039C
Perigee: 919.5 km
Apogee: 942.7 km
Inclination: 83.0 °
Period: 103.5 minutes
Semi major axis: 7302 km
RCS: 4.539 m2 (large)
Launch date: July 21, 2009
Source: Commonwealth of Independent States (former USSR) (CIS)
Launch site: PLESETSK MISSILE AND SPACE COMPLEX (PKMTR)

Note: This is a ROCKET BODY
aabbcc
Your satellite tracking list
Your tracking list is empty




NASA's NSSDC Master Catalog

Two Line Element Set (TLE):
1 35637U 09039C   21058.46576022 -.00000036  00000-0 -40723-4 0  9994
2 35637  82.9536  45.2388 0015896 351.4779 168.7019 13.91325658387298
Source of the keplerian elements: AFSPC